sat.trackr.live / text

‹ back to catalog

STARLINK-3866

NORAD 52500 · 2022-049BB

PAYLOAD ACTIVE UNKNOWN

§ Identity

Operator
Country
US
Launch date
2022-05-06
Launch site
AFETR
Launch vehicle
Mass (kg)
RCS (m²)

Purposes: comms

External: N2YO · Heavens-Above · Gunter

§ Orbital elements

Epoch: 2026-09-19T15:11:49.807968Z

Period
95.01 min
Inclination
53.1596°
Eccentricity
0.0003575
Mean motion
15.15560726 rev/d
Perigee alt
516.8 km
Apogee alt
521.7 km
Semi-major
6,897.4 km
B*
8.4206e-4
RAAN
246.0106°
Arg perigee
60.2678°
Mean anomaly
299.8672°
Rev number
24,183

§ Raw data

STARLINK-38661 52500U 22049BB  26262.63321537  .00015892  00000+0  84206-3 0  99942 52500  53.1596 246.0106 0003575  60.2678 299.8672 15.15560726241830

JSON: /api/v1/satellites/52500 · /tle

For live sub-satellite position, see the globe view (requires WebGL).

§ Visibility from observer

Set your observer location to see the next 7 days of passes ≥ 10°. The values pass through the URL so the page stays shareable.

No JS? Fill the form by hand. The geolocation button needs JavaScript.